EW8484 Weather Reports


time (UTC)temp
C
wind
direction
speed
KPH
gust
KPH
rain 1hr
cm
rain 24hr
cm
rain mn
cm
humidity
%
barometer
mb
20260502130546 8 246 1.6 3.2 0.00 0.58 0.58 49 1013.6
20260502123526 8 0.0 1.6 0.10 0.58 0.58 49 1013.5
20260502123026 8 0.0 1.6 0.13 0.58 0.58 49 1013.6
20260502122526 8 0.0 1.6 0.15 0.58 0.58 49 1013.6
20260502122026 8 0.0 3.2 0.18 0.58 0.58 49 1013.7
20260502121526 8 0.0 3.2 0.23 0.58 0.58 49 1013.7
20260502121026 8 247 1.6 3.2 0.25 0.58 0.58 49 1013.6
20260502120547 7 0.0 1.6 0.25 0.58 0.58 49 1013.7
20260502115526 7 0.0 0.0 0.25 0.56 0.56 49 1013.8
20260502115026 7 0.0 1.6 0.23 0.53 0.53 49 1013.9
20260502114546 7 247 1.6 3.2 0.23 0.53 0.53 49 1013.9
20260502114047 7 0.0 1.6 0.23 0.51 0.51 49 1013.9
20260502113526 7 0.0 1.6 0.23 0.48 0.48 49 1014.0
20260502113026 7 0.0 3.2 0.23 0.46 0.46 49 1014.0
20260502112526 7 0.0 0.0 0.25 0.43 0.43 49 1014.1
20260502112047 7 0.0 0.0 0.25 0.41 0.41 49 1014.2
20260502111526 7 0.0 1.6 0.20 0.36 0.36 49 1014.2
20260502111026 7 0.0 1.6 0.18 0.33 0.33 49 1014.0
20260502110526 7 0.0 0.0 0.18 0.33 0.33 49 1014.0
20260502110026 7 0.0 1.6 0.15 0.30 0.30 49 1013.9
20260502105547 7 0.0 3.2 0.15 0.30 0.30 49 1013.8
20260502105026 7 0.0 1.6 0.15 0.30 0.30 49 1013.8
20260502104526 7 0.0 1.6 0.15 0.30 0.30 49 1013.9
20260502104046 7 0.0 1.6 0.13 0.28 0.28 49 1014.1
20260502103526 7 0.0 0.0 0.10 0.25 0.25 49 1014.2
20260502103026 7 0.0 1.6 0.08 0.23 0.23 49 1014.3
20260502102526 7 0.0 1.6 0.03 0.18 0.18 49 1014.3
20260502102026 7 0.0 1.6 0.00 0.15 0.15 49 1014.3
20260502101128 7 0.0 0.0 0.00 0.15 0.15 49 1013.2
20260502100526 7 0.0 0.0 0.00 0.15 0.15 49 1012.9
20260502091526 7 0.0 0.0 0.08 0.15 0.15 48 1013.1
20260502091026 7 0.0 0.0 0.08 0.15 0.15 48 1013.1
20260502090526 7 0.0 1.6 0.08 0.15 0.15 48 1013.2
20260502071526 7 0.0 1.6 0.03 0.03 0.03 46 1013.5
20260502071026 7 13 1.6 3.2 0.03 0.03 0.03 45 1013.2
20260502070526 7 0.0 1.6 0.03 0.03 0.03 45 1013.1
20260502070026 7 0.0 1.6 0.03 0.03 0.03 44 1013.1
20260502065526 7 0.0 1.6 0.03 0.03 0.03 44 1013.2
20260502065046 7 0.0 1.6 0.00 0.00 0.00 43 1013.0
20260502064526 7 0.0 1.6 0.00 0.00 0.00 42 1012.9
20260502064025 7 0.0 1.6 0.00 0.00 0.00 42 1012.8
20260502063526 7 5 1.6 3.2 0.00 0.00 0.00 43 1012.8
20260502063026 7 5 1.6 3.2 0.00 0.00 0.00 43 1013.1
20260502062546 7 0.0 0.0 0.00 0.00 0.00 45 1013.2
20260502062046 7 0.0 1.6 0.00 0.00 0.00 47 1013.1
20260502061526 7 0.0 3.2 0.00 0.00 0.00 49 1013.0
20260502061026 7 350 1.6 3.2 0.00 0.00 0.00 50 1013.1
20260502060526 7 0.0 3.2 0.00 0.00 0.00 52 1013.3
20260502060026 7 0.0 1.6 0.00 0.00 0.00 55 1013.5
20260502055526 7 0.0 0.0 0.00 0.00 0.00 56 1013.5
20260502055025 8 0.0 1.6 0.00 0.00 0.00 57 1013.4
20260502054526 8 0.0 1.6 0.00 0.00 0.00 59 1013.4
20260502054026 8 349 1.6 3.2 0.00 0.00 0.00 60 1013.5
20260502053526 8 349 1.6 3.2 0.00 0.00 0.00 62 1013.3
20260502053026 8 349 1.6 3.2 0.00 0.00 0.00 63 1013.2
20260502052525 8 0.0 1.6 0.00 0.00 0.00 62 1013.2
20260502052026 8 349 1.6 3.2 0.00 0.00 0.00 62 1013.4
20260502051525 8 0.0 0.0 0.00 0.00 0.00 62 1013.5
20260502051026 8 0.0 0.0 0.00 0.00 0.00 62 1013.4
20260502050526 8 0.0 0.0 0.00 0.00 0.00 62 1013.5
20260502050025 8 0.0 0.0 0.00 0.00 0.00 62 1013.4
20260502045526 8 0.0 0.0 0.00 0.00 0.00 62 1013.2
20260502045026 8 0.0 0.0 0.00 0.00 0.00 62 1013.2
20260502044526 8 0.0 0.0 0.00 0.00 0.00 61 1013.0
20260502044026 8 0.0 0.0 0.00 0.00 0.00 61 1013.1
20260502043525 8 0.0 0.0 0.00 0.00 0.00 61 1013.1
20260502043026 8 0.0 0.0 0.00 0.00 0.00 61 1013.1
20260502042525 8 0.0 0.0 0.00 0.00 0.00 61 1013.1
20260502042046 8 0.0 0.0 0.00 0.00 0.00 61 1013.2
20260502041525 8 0.0 0.0 0.00 0.00 0.00 61 1013.2
20260502041025 8 0.0 0.0 0.00 0.00 0.00 61 1013.2
20260502040546 8 0.0 0.0 0.00 0.00 0.00 60 1013.2
20260502040025 8 0.0 0.0 0.00 0.00 0.00 60 1013.2
20260502035526 8 0.0 0.0 0.00 0.00 0.00 60 1013.2
20260502035026 8 0.0 0.0 0.00 0.00 0.00 60 1013.3
20260502034526 8 0.0 0.0 0.00 0.00 0.00 60 1013.2
20260502034026 8 0.0 0.0 0.00 0.00 0.00 60 1013.2
20260502033526 8 0.0 0.0 0.00 0.00 0.00 60 1013.3
20260502033026 8 0.0 0.0 0.00 0.00 0.00 60 1013.3
20260502032526 8 0.0 0.0 0.00 0.00 0.00 60 1013.3
20260502032026 8 0.0 1.6 0.00 0.00 0.00 60 1013.3
20260502031526 8 0.0 1.6 0.00 0.00 0.00 59 1013.3
20260502031047 8 0.0 0.0 0.00 0.00 0.00 58 1013.3
20260502030527 8 0.0 0.0 0.00 0.00 0.00 58 1013.3
20260502030027 8 0.0 0.0 0.00 0.00 0.00 58 1013.3
20260502025546 8 0.0 0.0 0.00 0.00 0.00 58 1013.3
20260502025046 8 0.0 0.0 0.00 0.00 0.00 58 1013.3
20260502024526 8 0.0 1.6 0.00 0.00 0.00 58 1013.2
20260502024207 8 349 1.6 3.2 0.00 0.00 0.00 59 1013.2
20260502023547 8 349 3.2 3.2 0.00 0.00 0.00 59 1013.3
20260502023026 8 349 1.6 3.2 0.00 0.00 0.00 58 1013.2
20260502022526 8 0.0 0.0 0.00 0.00 0.00 58 1013.3
20260502022026 8 0.0 0.0 0.00 0.00 0.00 57 1013.3
20260502021526 8 0.0 1.6 0.00 0.00 0.00 57 1013.3
20260502021026 8 349 3.2 4.8 0.00 0.00 0.00 57 1013.3
20260502020526 8 0.0 0.0 0.00 0.00 0.00 56 1013.3
20260502020026 8 0.0 0.0 0.00 0.00 0.00 56 1013.4
20260502015526 8 0.0 0.0 0.00 0.00 0.00 56 1013.3
20260502015026 8 0.0 0.0 0.00 0.00 0.00 56 1013.1
20260502014527 8 0.0 0.0 0.00 0.00 0.00 55 1013.2
20260502014026 8 0.0 0.0 0.00 0.00 0.00 54 1013.0
20260502013526 8 0.0 0.0 0.00 0.00 0.00 55 1012.9
20260502013026 8 0.0 0.0 0.00 0.00 0.00 55 1012.9
20260502012547 8 0.0 0.0 0.00 0.00 0.00 55 1012.8
20260502012026 8 0.0 0.0 0.00 0.00 0.00 54 1012.7
20260502011546 8 0.0 0.0 0.00 0.00 0.00 54 1012.8
20260502011026 8 0.0 0.0 0.00 0.00 0.00 52 1012.5
20260502010526 8 0.0 0.0 0.00 0.00 0.00 52 1012.5
20260502010026 8 0.0 0.0 0.00 0.00 0.00 52 1012.4
20260502005526 8 0.0 0.0 0.00 0.00 0.00 51 1012.3
20260502005026 8 0.0 0.0 0.00 0.00 0.00 50 1012.4
20260502004526 8 0.0 0.0 0.00 0.00 0.00 49 1012.2
20260502004026 9 0.0 0.0 0.00 0.00 0.00 48 1012.2
20260502003526 9 0.0 0.0 0.00 0.00 0.00 46 1012.2
20260502003026 9 0.0 0.0 0.00 0.00 0.00 45 1012.2
20260502002546 10 0.0 0.0 0.00 0.00 0.00 44 1012.1
20260502002026 10 0.0 0.0 0.00 0.00 0.00 44 1012.1
20260502001527 10 0.0 0.0 0.00 0.00 0.00 43 1012.0
20260502001026 10 0.0 0.0 0.00 0.00 0.00 42 1012.0
20260502000547 11 0.0 0.0 0.00 0.00 0.00 41 1011.8
20260502000047 11 0.0 0.0 0.00 0.00 0.00 39 1011.8
20260501235526 11 0.0 0.0 0.00 0.00 0.00 38 1011.7
20260501235026 12 0.0 0.0 0.00 0.00 0.00 36 1011.6
20260501234527 12 0.0 0.0 0.00 0.00 0.00 36 1011.6
20260501234026 12 0.0 0.0 0.00 0.00 0.00 34 1011.6
20260501233526 12 0.0 0.0 0.00 0.00 0.00 32 1011.5
20260501233026 13 0.0 0.0 0.00 0.00 0.00 31 1011.6
20260501232526 13 0.0 0.0 0.00 0.00 0.00 31 1011.4
20260501232026 13 0.0 0.0 0.00 0.00 0.00 31 1011.4
20260501231526 13 0.0 1.6 0.00 0.00 0.00 29 1011.3
20260501231026 14 0.0 1.6 0.00 0.00 0.00 29 1011.2
20260501230526 14 349 1.6 4.8 0.00 0.00 0.00 27 1011.2
20260501230026 15 0 1.6 6.4 0.00 0.00 0.00 26 1011.0
20260501225526 15 354 4.8 8.0 0.00 0.00 0.00 25 1010.9
20260501225026 15 359 3.2 8.0 0.00 0.00 0.00 25 1010.9
20260501224606 15 330 3.2 6.4 0.00 0.00 0.00 24 1010.8
20260501224026 15 351 8.0 17.7 0.00 0.00 0.00 23 1010.8
20260501223526 15 347 4.8 12.9 0.00 0.00 0.00 24 1010.9
20260501223107 15 345 8.0 20.9 0.00 0.00 0.00 23 1011.1
20260501222526 15 350 3.2 8.0 0.00 0.00 0.00 25 1011.0
20260501222026 15 355 3.2 6.4 0.00 0.00 0.00 24 1011.0
20260501221526 15 341 6.4 14.5 0.00 0.00 0.00 22 1011.1
20260501221026 15 347 6.4 14.5 0.00 0.00 0.00 23 1011.1
20260501220526 15 325 3.2 16.1 0.00 0.00 0.00 23 1011.1
20260501220026 15 21 1.6 4.8 0.00 0.00 0.00 24 1011.1
20260501215526 15 350 1.6 16.1 0.00 0.00 0.00 25 1011.2
20260501215026 15 323 4.8 16.1 0.00 0.00 0.00 24 1011.1
20260501214526 16 330 6.4 14.5 0.00 0.00 0.00 23 1010.9
20260501214026 16 354 4.8 20.9 0.00 0.00 0.00 25 1011.0
20260501213526 16 353 4.8 17.7 0.00 0.00 0.00 22 1011.1
20260501213026 16 346 9.7 20.9 0.00 0.00 0.00 20 1011.0
20260501212526 16 344 6.4 17.7 0.00 0.00 0.00 21 1010.8
20260501212026 16 359 8.0 16.1 0.00 0.00 0.00 20 1010.9
20260501211546 16 343 4.8 17.7 0.00 0.00 0.00 22 1010.9
20260501211046 17 336 4.8 17.7 0.00 0.00 0.00 25 1010.9
20260501210526 17 324 3.2 12.9 0.00 0.00 0.00 22 1010.9
20260501210026 16 328 3.2 12.9 0.00 0.00 0.00 21 1010.7
20260501205526 16 345 8.0 20.9 0.00 0.00 0.00 20 1010.8
20260501205026 16 345 6.4 24.1 0.00 0.00 0.00 21 1010.8
20260501204526 16 10 3.2 8.0 0.00 0.00 0.00 21 1010.7
20260501204026 16 356 4.8 14.5 0.00 0.00 0.00 22 1010.7
20260501203526 16 48 3.2 14.5 0.00 0.00 0.00 23 1010.7
20260501203026 16 336 3.2 12.9 0.00 0.00 0.00 22 1010.6
20260501202526 16 353 8.0 16.1 0.00 0.00 0.00 23 1010.5
20260501202107 16 357 8.0 17.7 0.00 0.00 0.00 24 1010.6
20260501201526 16 331 6.4 27.4 0.00 0.00 0.00 25 1010.8
20260501201026 16 354 6.4 27.4 0.00 0.00 0.00 21 1010.8
20260501200526 17 329 3.2 8.0 0.00 0.00 0.00 21 1010.8
20260501200026 16 287 3.2 14.5 0.00 0.00 0.00 25 1010.8
20260501195526 16 358 8.0 24.1 0.00 0.00 0.00 21 1010.7
20260501195025 16 360 3.2 6.4 0.00 0.00 0.00 22 1010.8
20260501194526 16 325 6.4 22.5 0.00 0.00 0.00 22 1010.8
20260501194026 16 332 4.8 16.1 0.00 0.00 0.00 23 1010.8
20260501193526 16 342 6.4 17.7 0.00 0.00 0.00 25 1010.7
20260501193026 16 346 4.8 14.5 0.00 0.00 0.00 27 1010.8
20260501192526 16 327 6.4 20.9 0.00 0.00 0.00 25 1010.9
20260501192025 16 343 4.8 16.1 0.00 0.00 0.00 25 1011.0
20260501191526 16 355 3.2 11.3 0.00 0.00 0.00 24 1011.0
20260501191026 16 308 4.8 12.9 0.00 0.00 0.00 24 1011.2
20260501190526 16 359 6.4 14.5 0.00 0.00 0.00 27 1011.2
20260501190026 16 340 8.0 16.1 0.00 0.00 0.00 24 1011.2
20260501185525 16 355 6.4 17.7 0.00 0.00 0.00 29 1011.3
20260501185026 16 344 8.0 24.1 0.00 0.00 0.00 28 1011.3
20260501184546 16 353 9.7 20.9 0.00 0.00 0.00 26 1011.2
20260501184025 16 348 11.3 20.9 0.00 0.00 0.00 24 1011.4
20260501183526 16 351 6.4 19.3 0.00 0.00 0.00 25 1011.5
20260501183026 16 282 4.8 12.9 0.00 0.00 0.00 26 1011.4
20260501182526 16 224 3.2 6.4 0.00 0.00 0.00 25 1011.6
20260501182026 16 330 4.8 14.5 0.00 0.00 0.00 25 1011.6
20260501181526 16 318 6.4 20.9 0.00 0.00 0.00 27 1011.6
20260501181026 16 0 6.4 22.5 0.00 0.00 0.00 26 1011.7
20260501180526 15 349 6.4 20.9 0.00 0.00 0.00 31 1011.6
20260501180026 15 349 9.7 20.9 0.00 0.00 0.00 29 1011.7
20260501175526 15 2 9.7 24.1 0.00 0.00 0.00 27 1011.7
20260501175025 15 349 8.0 17.7 0.00 0.00 0.00 29 1011.7
20260501174526 15 330 6.4 14.5 0.00 0.00 0.00 30 1011.4
20260501174026 15 357 9.7 20.9 0.00 0.00 0.00 29 1011.5
20260501173525 15 1 6.4 11.3 0.00 0.00 0.00 29 1011.7
20260501173026 15 332 4.8 9.7 0.00 0.00 0.00 29 1011.7
20260501172525 15 23 4.8 16.1 0.00 0.00 0.00 26 1011.6
20260501172106 15 327 4.8 12.9 0.00 0.00 0.00 30 1011.7
20260501171525 15 354 4.8 16.1 0.00 0.00 0.00 29 1011.7
20260501171026 14 346 8.0 17.7 0.00 0.00 0.00 31 1011.8
20260501170525 15 331 4.8 16.1 0.00 0.00 0.00 29 1011.8
20260501170025 15 351 6.4 17.7 0.00 0.00 0.00 33 1011.8
20260501165525 15 309 4.8 9.7 0.00 0.00 0.00 29 1011.8
20260501165025 15 211 4.8 9.7 0.00 0.00 0.00 32 1011.7
20260501164525 15 166 3.2 11.3 0.00 0.00 0.00 37 1011.8
20260501164026 14 204 3.2 8.0 0.00 0.00 0.00 38 1011.8
20260501163525 13 355 6.4 14.5 0.00 0.00 0.00 38 1011.9
20260501163106 13 347 9.7 25.7 0.00 0.00 0.00 36 1011.9
20260501162025 13 355 6.4 19.3 0.00 0.00 0.00 36 1011.9
20260501161546 12 352 3.2 12.9 0.00 0.00 0.00 39 1012.0
20260501161025 12 328 4.8 11.3 0.00 0.03 0.00 37 1012.0
20260501160525 12 351 6.4 16.1 0.00 0.03 0.00 37 1012.2
20260501160025 13 346 9.7 17.7 0.00 0.03 0.00 37 1012.4
20260501155525 12 346 8.0 16.1 0.00 0.03 0.00 42 1012.3
20260501155026 12 1 8.0 19.3 0.00 0.03 0.00 41 1012.3
20260501154525 12 339 8.0 17.7 0.00 0.03 0.00 40 1012.4
20260501154045 12 347 9.7 20.9 0.00 0.03 0.00 39 1012.6
20260501153526 12 353 9.7 16.1 0.00 0.03 0.00 42 1012.6
20260501153027 12 343 4.8 16.1 0.00 0.03 0.00 46 1012.7
20260501152527 12 5 6.4 12.9 0.00 0.03 0.00 42 1012.6
20260501152028 12 331 6.4 16.1 0.00 0.03 0.00 42 1012.7
20260501151527 12 346 3.2 12.9 0.00 0.03 0.00 42 1012.6
20260501151027 11 356 3.2 8.0 0.00 0.03 0.00 44 1012.6
20260501150527 11 16 4.8 9.7 0.00 0.03 0.00 39 1012.6
20260501150027 12 0 6.4 14.5 0.00 0.05 0.00 35 1012.6
20260501145527 11 28 4.8 12.9 0.00 0.05 0.00 35 1012.7
20260501145027 11 4 6.4 14.5 0.00 0.05 0.00 33 1012.7
20260501144527 11 330 8.0 17.7 0.00 0.08 0.00 37 1012.8
20260501144048 10 2 8.0 16.1 0.00 0.08 0.00 36 1012.8
20260501143527 10 345 4.8 14.5 0.00 0.08 0.00 37 1012.8
20260501143027 10 349 4.8 11.3 0.00 0.08 0.00 34 1012.9
20260501142527 10 347 3.2 9.7 0.00 0.08 0.00 40 1012.9
20260501142027 10 342 1.6 4.8 0.00 0.08 0.00 40 1012.8
20260501141527 10 329 3.2 8.0 0.00 0.08 0.00 38 1012.8
20260501141027 10 345 3.2 8.0 0.00 0.08 0.00 37 1012.8
20260501140527 10 17 4.8 8.0 0.00 0.08 0.00 38 1012.9
20260501140027 10 2 6.4 12.9 0.00 0.08 0.00 37 1012.8
20260501135527 10 334 8.0 19.3 0.00 0.08 0.00 35 1012.9